This demonstration page uses our WeatherBlox Daily Observations layout. Learn more.

Left ArrowRight Arrow

Hourly Observations for January 9, 2020

Temp ( °F °C ) Dew Point ( °F °C ) Humidity (%) Winds ( mph kmh ) Pressure ( in mb ) Visibility ( mi km ) Precip ( " mm )
12:53 am 00:53 Clear 35 1.7 29 -1.7 78 78 Calm 30.44 1031 10 16 0.00 0.00
1:53 am 01:53 Clear 32 0 28 -2.2 85 85 Calm 30.44 1031 10 16 0.00 0.00
2:53 am 02:53 Clear 32 0 29 -1.7 88 88 Calm 30.46 1032 10 16 0.00 0.00
3:53 am 03:53 Clear 31 -0.6 28 -2.2 89 89 Calm 30.46 1032 10 16 0.00 0.00
4:53 am 04:53 Clear 30 -1.1 27 -2.8 88 88 Calm 30.46 1032 10 16 0.00 0.00
5:53 am 05:53 Clear 30 -1.1 27 -2.8 88 88 Calm 30.48 1032 10 16 0.00 0.00
6:53 am 06:53 Clear 30 -1.1 27 -2.8 88 88 Calm 30.50 1033 10 16 0.00 0.00
7:53 am 07:53 Sunny 30 -1.1 27 -2.8 88 88 Calm 30.50 1033 10 16 0.00 0.00
8:53 am 08:53 Sunny 35 1.7 31 -0.6 85 85 Calm 30.53 1034 10 16 0.00 0.00
9:53 am 09:53 Sunny 49 9.4 31 -0.6 50 50 VRB 5 7 30.54 1034 10 16 0.00 0.00
10:53 am 10:53 Sunny 54 12.2 28 -2.2 37 37 E 8 13 30.56 1035 10 16 0.00 0.00
11:53 am 11:53 Sunny 57 13.9 28 -2.2 33 33 SE 8 13 30.54 1034 10 16 0.00 0.00
12:53 pm 12:53 Sunny 60 15.6 27 -2.8 28 28 S 16 26 30.51 1033 10 16 0.00 0.00
1:53 pm 13:53 Sunny 62 16.7 27 -2.8 26 26 SE 10 17 30.46 1031 10 16 0.00 0.00
2:53 pm 14:53 Sunny 62 16.7 33 0.6 34 34 SSE 13 20 30.45 1031 10 16 0.00 0.00
3:53 pm 15:53 Sunny 63 17.2 39 3.9 41 41 SSE 13 20 30.43 1030 10 16 0.00 0.00
4:53 pm 16:53 Sunny 63 17.2 43 6.1 48 48 SSE 12 19 30.42 1030 10 16 0.00 0.00
5:53 pm 17:53 Mostly Cloudy 62 16.7 44 6.7 52 52 S 9 15 30.46 1032 10 16 0.00 0.00
6:53 pm 18:53 Mostly Cloudy 61 16.1 44 6.7 54 54 SE 5 7 30.48 1032 10 16 0.00 0.00
7:53 pm 19:53 Mostly Cloudy 60 15.6 44 6.7 56 56 E 5 7 30.48 1032 10 16 0.00 0.00
8:53 pm 20:53 Cloudy 59 15 43 6.1 56 56 Calm 30.49 1033 10 16 0.00 0.00
9:53 pm 21:53 Cloudy 59 15 42 5.6 54 54 E 3 6 30.49 1033 10 16 0.00 0.00
10:53 pm 22:53 Cloudy 59 15 41 5 51 51 E 8 13 30.48 1032 10 16 0.00 0.00
11:53 pm 23:53 Mostly Clear 58 14.4 42 5.6 56 56 E 9 15 30.45 1031 10 16 0.00 0.00

Powered by AerisWeather